Track COSMOS 1783 now! 10-day predictions COSMOS 1783 is classified as:
1 16993U 86075A 23150.74104115 .00159416 49173-6 84873-3 0 9997 2 16993 62.1513 329.6557 3439017 2.7921 358.7606 8.68235750573995